www.pogodaiklimat.ru

Погода и климат >> Архив погоды >> Соломоновы Острова >> Остров Таро


ПОГОДА на Острове Таро

  • Прогноз погоды на Острове Таро
  • Монитор погоды на Острове Таро

АРХИВ ПОГОДЫ на Острове Таро

Время (UTC), дата Ветер
(напр.,м/с)
 
Видим.   Явления Облачность Т
(С)
Тd
(С)
f
(%)
Тe
(С)
Тes
(С)
Комфортность P
(гПа)
Po
(гПа)
Тmin
(С)
Tmax
(С)
R
(мм)
R24
(мм)
S
(см)
09 19.03 ЮВ 2 20 км осадки на расстоянии 9/5 420 м
[Cb cap Ac As]
+28.2 +25.2 84 +41 +41 опасность
перегрева
1008.0 1007.7
12 19.03 штиль 0 20 км осадки на расстоянии 8/5 420 м
[Cb cap Ac As Cs]
+27.5 +26.4 94 +42 +42 опасность
перегрева
1009.5 1009.2 +32.9
18 19.03 ЮВ 3 20 км осадки на расстоянии {морось} 10/6 420 м
[Cb cap Ac As]
+26.3 +25.2 94 +38 +38 очень
душно
1007.0 1006.7 0.2
21 19.03 штиль 0 20 км осадки на расстоянии {морось} 8/3 420 м
[Cb cap Ac trans Ci ing]
+26.6 +25.2 92 +38 +40 очень
душно
1008.2 1007.9 0.2
00 20.03 Ю 2 25 км осадки на расстоянии 3/1 450 м
[Cb cap Ci ing]
+30.0 +25.2 76 +44 +61 опасность
перегрева
1009.9 1009.6 0.4
03 20.03 СВ 2 25 км осадки на расстоянии 8/4 450 м
[Cb cap Cs]
+30.5 +25.6 75 +45 +52 опасность
перегрева
1007.3 1007.0
06 20.03 СВ 2 20 км осадки на расстоянии 10/6 420 м
[Cb cap Ac As]
+29.5 +26.0 81 +44 +45 опасность
перегрева
1006.7 1006.4
09 20.03 С 1 20 км осадки на расстоянии {морось} 8/3 420 м
[Cb cap Ac trans Ci ing]
+26.8 +25.9 95 +40 +40 очень
душно
1008.5 1008.2 0.2
12 20.03 штиль 0 25 км осадки на расстоянии {морось} 8/1 420 м
[Cb cap Ac trans Ci ing]
+26.3 +25.8 97 +39 +39 очень
душно
1009.6 1009.3 +32.5 0.2
18 20.03 штиль 0 25 км осадки на расстоянии 6/3 420 м
[Cb cap Ac trans Cs]
+25.8 +25.3 97 +37 +37 очень
душно
1006.9 1006.6
21 20.03 С 2 25 км осадки на расстоянии 5/3 420 м
[Cb cap Ac trans Ci sp]
+26.6 +25.2 92 +38 +40 очень
душно
1008.4 1008.1
00 21.03 З 2 25 км осадки на расстоянии 5/4 420 м
[Cb cap Cs]
+31.1 +25.7 73 +46 +56 опасность
перегрева
1009.3 1009.0 0.2
03 21.03 СВ 2 25 км осадки на расстоянии 9/5 450 м
[Cb cap Cs]
+29.8 +27.4 87 +48 +52 опасность
перегрева
1007.2 1006.9
06 21.03 ЮВ 1 25 км осадки на расстоянии 9/4 420 м
[Cb cap Ac As Cs]
+29.7 +26.5 83 +46 +47 опасность
перегрева
1006.4 1006.1
09 21.03 штиль 0 20 км осадки на расстоянии 10/3 420 м
[Cb cap Cs]
+27.4 +26.0 92 +41 +41 опасность
перегрева
1008.1 1007.8
12 21.03 С 1 20 км осадки на расстоянии 9/3 420 м
[Cb cap Ac As Cs]
+26.4 +26.4 100 +40 +40 очень
душно
1009.9 1009.6 +31.4
18 21.03 штиль 0 20 км осадки на расстоянии 8/3 420 м
[Cb cap Ac trans Cs]
+25.6 +24.9 96 +36 +36 очень
душно
1007.8 1007.5
21 21.03 штиль 0 20 км осадки на расстоянии 8/3 420 м
[Cb cap Ac trans Cs]
+25.5 +25.1 98 +37 +38 очень
душно
1009.2 1008.9
00 22.03 Ю 2 25 км осадки на расстоянии 6/3 450 м
[Cb cap Ac trans Cs]
+30.5 +26.3 78 +46 +56 опасность
перегрева
1009.9 1009.6
03 22.03 В 2 20 км осадки на расстоянии {ливн. осадки} 8/3 450 м
[Cb cap Ac trans Cs]
+27.5 +26.0 92 +41 +45 опасность
перегрева
1007.7 1007.4 1
06 22.03 С 2 20 км осадки на расстоянии {ливн. осадки} 8/3 450 м
[Cb cap Ac trans Cs]
+29.9 +26.4 82 +46 +47 опасность
перегрева
1006.3 1006.0 1
09 22.03 штиль 0 20 км осадки на расстоянии 4/3 420 м
[Cb cap Cs]
+27.5 +26.0 92 +41 +41 опасность
перегрева
1007.7 1007.4
12 22.03 штиль 0 20 км гроза без осадков 8/4 420 м
[Cb cap Ac trans Cs]
+26.5 +25.8 96 +39 +39 очень
душно
1009.9 1009.6 +32.0
18 22.03 С 1 20 км зарница {морось} 8/3 420 м
[Cb cap Ac As Cs]
+26.1 +25.0 94 +37 +37 очень
душно
1007.1 1006.8 0.2
21 22.03 С 2 20 км слаб. морось 10/10 420 м
[Cb cap]
+25.4 +24.8 96 +36 +36 очень
душно
1010.1 1009.8 4
00 23.03 СВ 1 20 км слаб. ливневой дождь 10/4 420 м
[Cb cap Ac As]
+25.5 +24.6 95 +36 +40 очень
душно
1010.6 1010.3 5 11
03 23.03 С 1 15 км слаб. морось 10/10 420 м
[Cb cap]
+27.1 +25.0 88 +39 +39 очень
душно
1008.6 1008.3 0.8
06 23.03 С 2 20 км осадки на расстоянии 9/3 420 м
[Cb cap Ac As Cs]
+27.9 +24.7 83 +40 +41 очень
душно
1007.0 1006.7
09 23.03 штиль 0 20 км осадки на расстоянии 9/3 420 м
[Cb cap Ac As Cs]
+26.6 +25.1 91 +38 +38 очень
душно
1009.8 1009.5
12 23.03 СВ 1 20 км слаб. морось 9/4 420 м
[Cb cap Ac As]
+26.1 +25.0 94 +37 +37 очень
душно
1010.9 1010.6 +27.3 0.4
18 23.03 С 1 20 км осадки на расстоянии {ливн. осадки} 6/3 420 м
[Cb cap Ac As Cs]
+25.2 +24.4 95 +35 +35 очень
душно
1007.8 1007.5 1
21 23.03 С 2 20 км осадки на расстоянии {морось} 10/6 420 м
[Cb cap Ac As]
+26.5 +25.5 94 +39 +39 очень
душно
1009.3 1009.0 0.6
00 24.03 ЮЗ 2 20 км осадки на расстоянии {морось} 10/4 450 м
[Cb cap Ac As Cs]
+30.0 +25.8 78 +45 +50 опасность
перегрева
1010.4 1010.1 3
03 24.03 СЗ 3 20 км осадки на расстоянии {ливн. осадки} 10/4 450 м
[Cb cap Ac trans Cs]
+30.5 +25.6 75 +45 +45 опасность
перегрева
1008.3 1008.0 2
06 24.03 штиль 0 25 км осадки на расстоянии {ливн. осадки} 10/3 420 м
[Cb cap Ac As Cs]
+29.0 +25.9 83 +43 +45 опасность
перегрева
1008.2 1007.9 2
09 24.03 штиль 0 20 км осадки на расстоянии {ливн. осадки} 9/3 420 м
[Cb cap Ac As Cs]
+26.0 +25.3 96 +38 +38 очень
душно
1010.0 1009.7 3
12 24.03 Ю 2 20 км осадки на расстоянии {ливн. осадки} 8/1 420 м
[Cb cap Ac trans Cs]
+26.5 +25.1 92 +38 +38 очень
душно
1010.2 1009.9 +31.0 3
18 24.03 С 1 25 км осадки на расстоянии 6/3 420 м
[Cb cap Cs]
+25.2 +24.4 95 +35 +35 очень
душно
1008.7 1008.4
21 24.03 СВ 1 25 км осадки на расстоянии 6/3 420 м
[Cb cap Cs]
+26.4 +25.2 93 +38 +40 очень
душно
1009.9 1009.6
00 25.03 З 2 25 км осадки на расстоянии 5/3 450 м
[Cb cap Ac As Ci sp]
+30.3 +25.7 76 +45 +55 опасность
перегрева
1010.2 1009.9 5
03 25.03 С 3 25 км осадки на расстоянии 5/5 480 м
[Cb cap Cs]
+31.8 +26.0 71 +47 +60 опасность
перегрева
1008.4 1008.1
06 25.03 С 4 25 км осадки на расстоянии 4/4 420 м
[Cb cap Ac As Cs]
+31.1 +25.4 72 +45 +47 опасность
перегрева
1007.9 1007.6
09 25.03 штиль 0 25 км осадки на расстоянии 3/3 420 м
[Cb cap]
+27.6 +25.4 88 +40 +40 очень
душно
1009.8 1009.5
12 25.03 штиль 0 25 км осадки на расстоянии 3/3 400 м
[Cb cap Ac As Ci fib]
+26.6 +25.2 92 +38 +38 очень
душно
1011.2 1010.9 +32.9
21 25.03 СВ 2 25 км осадки на расстоянии {ливн. осадки} 8/3 420 м
[Cb cap Cs]
+25.8 +25.6 99 +38 +38 очень
душно
1010.7 1010.4 16
00 26.03 СЗ 2 25 км осадки на расстоянии 6/3 450 м
[Cb cap Ac trans Cs]
+15.8 +16 +27 1011.1 1010.7 16
03 26.03 штиль 0 20 км гроза без осадков 9/8
[Cb cap Ac As Cs]
+29.5 +25.7 80 +44 +48 опасность
перегрева
1009.3 1009.0

 

Местоположение метеостанции Остров Таро (Соломоновы Острова): широта -6.71 долгота 156.40 высота над уровнем моря 3 м.

В архиве по умолчанию представлена погода на Острове Таро за последнюю неделю. Архивные данные за месяц целиком и за предыдущие месяцы, начиная с января 2011 года, Вы можете получить, выбрав интересующий диапазон дат из раскрывающегося списка и нажав кнопку "Ввод!".


*Определитесь, кто Вы:
робот инопланетянин человек

Внимание! Время в таблицах - всемирное. Для получения местного времени необходимо прибавить поправку, которая равна 11 ч.

Смотрите также архив погоды в соседних городах и на ближайших метеорологических станциях:

Погода в Манде (Соломоновы Острова) (204 км)
Погода в Хониаре (Соломоновы Острова) (495 км)
Погода в Хониара аэропорту (Соломоновы Острова) (502 км)
Погода в Токуа (Папуа Новая Гвинея) (520 км)
Погода в Ауки (Соломоновы Острова) (530 км)
Погода на Мисиме (Папуа Новая Гвинея) (591 км)
Погода в Кавиенге (Папуа Новая Гвинея) (772 км)
Погода в Герни (Папуа Новая Гвинея) (778 км)
Погода на Атолле Капингамаранги (Микронезия) (885 км)
Погода в Порт-Морсби (Папуа Новая Гвинея) (1055 км)

Пояснения к столбцам:

Ветер - указаны скорость ветра в м/с - средняя за 10 мин, порывы в срок и между сроками (в фигурных скобках) и направление, откуда дует ветер: С - северный, СВ - северо-восточный, В - восточный, ЮВ - юго-восточный, Ю - южный, ЮЗ - юго-западный, З - западный, СЗ - северо-западный.
Видимость - горизонтальная дальность видимости в метрах или километрах. При видимости от 1 до 10 км при отсутствии осадков обычно наблюдается дымка, при ухудшении видимости до 1 км и менее - туман. В сухую погоду видимость может ухудшаться дымом, пылью или мглою.
Явления - указаны атмосферные явления, наблюдавшиеся в срок или в последний час перед сроком; фигурными скобками обозначены явления, наблюдавшиеся между сроками (за 1-3 часа до срока); квадратными скобками обозначены град или гололедные отложения с указанием их диаметра в мм.
Облачность - указаны через наклонную черту общая и нижняя облачность в баллах и высота нижней границы облаков в метрах; квадратными скобками обозначены формы облаков: Ci - перистые, Cs - перисто-слоистые, Cc - перисто-кучевые, Ac - высококучевые, As - высокослоистые, Sc - слоисто-кучевые, Ns - слоисто-дождевые, Cu - кучевые, Cb - кучево-дождевые. Подробнее классификацию облаков см. в Атласе облаков (PDF).
T - Температура воздуха - температура, измеренная на высоте 2 м над землей.
Td - Температура точки росы - температура, при понижении до которой содержащийся в воздухе водяной пар достигнет насыщения.
f - Относительная влажность воздуха - влажноcть воздуха, измеренная на высоте 2 м над землей.
Te - Эффективная температура - температура, которую ощущает одетый по сезону человек в тени. Характеристика душности погоды. При расчете учитывается влияние влажности воздуха и скорости ветра на теплоощущения человека.
Tes - Эффективная температура на солнце - температура, которую ощущает человек, с поправкой на солнечный нагрев. Характеристика знойности погоды. Зависит от высоты солнца над горизонтом, облачности и скорости ветра. Ночью, в пасмурную погоду, а также при ветре 12 м/с и более поправка равна нулю.
P - Атмосферное давление - приведенное к уровню моря атмосферное давление.
Po - Атмосферное давление - измеренное на уровне метеостанции атмосферное давление.
Tmin - Минимальная температура - минимум температуры воздуха на высоте 2 м над землей.
Tmax - Максимальная температура - максимум температуры воздуха на высоте 2 м над землей.
R - Количество осадков - Количество выпавших осадков за период времени, мм. При наведении курсора мыши на число - период времени, за который выпало указанное количество осадков.
R24 - Количество осадков - Количество выпавших осадков за 24 часа, мм.
S - Снежный покров - Высота снежного покрова, см. При наведении курсора мыши на число - состояние снежного покрова и степень покрытия местности в баллах.